TimePDT,TemperatureF,Dew PointF,Humidity,Sea Level PressureIn,VisibilityMPH,Wind Direction,Wind SpeedMPH,Gust SpeedMPH,PrecipitationIn,Events,Conditions,WindDirDegrees,DateUTC
12:54 AM,59.0,39.0,48,30.01,10.0,Calm,Calm,-,N/A,,Clear,0,2013-10-16 07:54:00
1:54 AM,57.9,39.0,49,30.03,10.0,Calm,Calm,-,N/A,,Clear,0,2013-10-16 08:54:00
2:54 AM,57.0,37.9,49,30.04,10.0,Calm,Calm,-,N/A,,Clear,0,2013-10-16 09:54:00
3:54 AM,55.9,37.0,49,30.04,10.0,Calm,Calm,-,N/A,,Clear,0,2013-10-16 10:54:00
4:54 AM,53.1,37.9,57,30.04,10.0,Calm,Calm,-,N/A,,Clear,0,2013-10-16 11:54:00
5:54 AM,52.0,37.9,59,30.06,10.0,Calm,Calm,-,N/A,,Clear,0,2013-10-16 12:54:00
6:54 AM,52.0,37.0,57,30.08,10.0,Calm,Calm,-,N/A,,Clear,0,2013-10-16 13:54:00
7:54 AM,54.0,37.9,55,30.10,9.0,Calm,Calm,-,N/A,,Clear,0,2013-10-16 14:54:00
8:54 AM,62.1,36.0,38,30.11,10.0,Calm,Calm,-,N/A,,Clear,0,2013-10-16 15:54:00
9:54 AM,69.1,34.0,27,30.10,10.0,South,4.6,-,N/A,,Clear,180,2013-10-16 16:54:00
10:54 AM,75.0,28.9,18,30.09,10.0,South,5.8,-,N/A,,Clear,190,2013-10-16 17:54:00
11:54 AM,77.0,28.0,17,30.07,10.0,Calm,Calm,-,N/A,,Clear,0,2013-10-16 18:54:00
12:54 PM,80.1,24.1,13,30.05,10.0,West,5.8,-,N/A,,Clear,270,2013-10-16 19:54:00
1:54 PM,82.0,26.1,13,30.02,10.0,NW,6.9,-,N/A,,Clear,310,2013-10-16 20:54:00
2:54 PM,82.9,28.9,14,30.01,10.0,NW,5.8,-,N/A,,Clear,310,2013-10-16 21:54:00
3:54 PM,84.0,33.1,16,30.00,10.0,WNW,9.2,-,N/A,,Clear,300,2013-10-16 22:54:00
4:54 PM,82.9,32.0,16,29.99,10.0,North,10.4,-,N/A,,Clear,350,2013-10-16 23:54:00
5:54 PM,80.1,30.9,17,29.99,10.0,North,9.2,-,N/A,,Clear,350,2013-10-17 00:54:00
6:54 PM,73.9,30.9,21,29.99,10.0,NNE,6.9,-,N/A,,Clear,20,2013-10-17 01:54:00
7:54 PM,66.9,28.0,23,30.00,10.0,Calm,Calm,-,N/A,,Clear,0,2013-10-17 02:54:00
8:54 PM,68.0,30.9,25,30.01,10.0,WNW,3.5,-,N/A,,Clear,290,2013-10-17 03:54:00
9:54 PM,66.0,30.0,26,30.02,10.0,ESE,5.8,-,N/A,,Clear,110,2013-10-17 04:54:00
10:54 PM,66.0,30.9,27,30.02,10.0,ESE,4.6,-,N/A,,Clear,110,2013-10-17 05:54:00
11:54 PM,62.1,28.9,29,30.03,10.0,Calm,Calm,-,N/A,,Clear,0,2013-10-17 06:54:00